www.pogodaiklimat.ru

Погода и климат >> Архив погоды >> Германия >> Бамберг


ПОГОДА в Бамберге

  • Прогноз погоды в Бамберге
  • Монитор погоды в Бамберге

АРХИВ ПОГОДЫ в Бамберге

Время (UTC), дата Ветер
(напр.,м/с)
 
Видим.   Явления Облачность Т
(С)
Тd
(С)
f
(%)
Тe
(С)
Тes
(С)
Комфортность P
(гПа)
Po
(гПа)
Тmin
(С)
Tmax
(С)
R
(мм)
R24
(мм)
S
(см)
04 12.06 ЮВ 1 14 км 10/0
[]
+15.2 +14.8 97 +16 +16 1007.7 979.6
05 12.06 В 1 23 км 9/0
[]
+18.4 +16.0 86 +20 +21 1006.9 979.2
06 12.06 В 1 35 км 4/0
[]
+19.4 +14.3 72 +22 +26 комфорт 1006.4 978.7 +13.8 +21.6 0.0
07 12.06 СЗ 1-3
{3}
40 км 6/0
[]
+20.1 +15.1 73 +24 +29 комфорт 1006.1 978.5
08 12.06 З 2-3
{3}
45 км 1/0
[]
+21.2 +15.3 69 +24 +34 комфорт 1005.6 978.1
09 12.06 З 2 30 км 3/0
[]
+22.5 +16.2 68 +27 +39 душно 1005.6 978.3
10 12.06 З 4 30 км 5/0
[]
+23.2 +16.6 66 +28 +36 душно 1006.0 978.7
11 12.06 З 7 30 км в посл. час осадки 9/9 750 м
[]
+20.8 +16.0 74 +24 +24 комфорт 1008.0 980.4
12 12.06 З 6 45 км {осадки} 9/9 420 м
[]
+17.1 +13.5 79 +16 +17 1010.2 982.2 0.0
13 12.06 З 4 65 км в посл. час дождь 9/9 500 м
[]
+15.8 +11.9 78 +15 +16 1011.6 983.4
14 12.06 СЗ 3 40 км в посл. час дождь 9/0 2000 м
[]
+15.6 +12.1 80 +15 +21 1011.3 983.1
15 12.06 З 4 >70 км в посл. час дождь {морось} 9/9 500 м
[]
+15.3 +11.3 77 +14 +15 1012.1 983.9 0.3
16 12.06 З 2 23 км слаб. дождь {морось} 9/9 150 м
[]
+14.3 +12.3 88 +14 +14 1012.7 984.4
17 12.06 С 1 35 км слаб. дождь {морось} 10/10 1500 м
[]
+15.0 +13.0 88 +15 +15 1012.8 984.5
18 12.06 З 1 55 км в посл. час дождь {морось} 9/9 300 м
[]
+15.0 +12.0 82 +16 +16 1012.5 984.2 +14.0 +24.2 1
19 12.06 Ю 1 55 км в посл. час дождь 9/9 720 м
[]
+15.0 +13.0 88 +15 +15 1012.7 984.4
20 12.06 Ю 2 40 км 9/9 480 м
[]
+14.1 +13.0 93 +14 +14 1013.8 985.4
21 12.06 ЮВ 2 35 км {дождь} 10/0
[]
+13.9 +12.9 94 +13 +13 1014.6 986.2 0.0
22 12.06 Ю 1-2
{5}
20 км в посл. час дождь 10/0
[]
+13.7 +12.8 94 +14 +14 1014.8 986.3
23 12.06 Ю 1 10 км 10/0
[]
+13.5 +12.9 96 +14 +14 1015.1 986.6
00 13.06 Ю 2 22 км в посл. час дождь 10/0 2000 м
[]
+13.8 +12.9 94 +13 +13 1015.8 987.3 0.1
01 13.06 Ю 2 16 км в посл. час дождь {морось} 10/0
[]
+13.5 +12.7 95 +13 +13 1015.8 987.3
02 13.06 Ю 1-1
{3}
2500 м дымка 1/0
[]
+11.9 +11.0 94 +12 +12 1014.7 986.1
03 13.06 СЗ 1 7000 м дымка {дождь} 1/0
[]
+11.6 +11.1 97 +11 +11 1015.1 986.4 0.0
04 13.06 В 1 8000 м 9/9 180 м
[]
+12.0 +11.5 97 +12 +12 1015.6 986.9
05 13.06 Ю 1-1
{2}
8000 м 10/10 150 м
[]
+12.8 +12.1 96 +13 +13 1016.0 987.4
06 13.06 ЮВ 1 14 км {дождь, морось} 9/9 100 м
[]
+14.0 +12.3 89 +14 +15 1016.4 987.9 +11.3 +15.3 0.1
07 13.06 Ю 1 35 км 9/9 270 м
[]
+15.9 +12.5 80 +17 +17 1016.2 987.9
08 13.06 ЮВ 2-3
{4}
45 км ясно +18.3 +12.6 69 +19 +30 1015.5 987.5
09 13.06 Ю 2 55 км 3/3 1500 м
[]
+19.4 +12.0 62 +21 +31 комфорт 1015.3 987.4
10 13.06 С 2-4
{4}
50 км 8/0
[]
+20.3 +11.0 55 +23 +32 комфорт 1014.9 987.1
11 13.06 Ю 2-3
{4}
>70 км ясно +21.9 +10.3 48 +24 +41 комфорт 1014.4 986.7
12 13.06 Ю 3 65 км 5/0
[]
+23.7 +10.0 42 +25 +36 комфорт 1014.0 986.5
13 13.06 Ю 2-3
{5}
>70 км ясно +24.0 +8.4 37 +25 +40 комфорт 1013.8 986.3
14 13.06 Ю 3-4
{5}
>70 км 3/0 2000 м
[]
+22.8 +10.1 45 +25 +34 комфорт 1013.8 986.2
15 13.06 СВ 1-2
{6}
>70 км ясно +24.4 +10.2 41 +25 +36 комфорт 1013.4 986.0
16 13.06 ЮВ 2-3
{3}
>70 км 1/0 2000 м
[]
+24.3 +8.6 37 +25 +30 комфорт 1013.2 985.7
17 13.06 Ю 2-3
{4}
65 км ясно +24.6 +8.9 37 +25 +28 комфорт 1013.2 985.8
18 13.06 ЮЗ 1 50 км ясно +24.7 +9.9 39 +26 +27 жарко 1013.5 986.1 +14.1 +25.2
19 13.06 З 1-1
{4}
65 км ясно +21.1 +14.6 66 +24 +24 комфорт 1014.3 986.6
20 13.06 В 1-1
{2}
55 км ясно +16.5 +13.6 83 +17 +17 1015.5 987.3
21 13.06 Ю 1-1
{4}
50 км ясно +13.9 +11.9 88 +14 +14 1016.5 988.0
22 13.06 ЮВ 1-2
{2}
40 км ясно +13.0 +11.9 93 +13 +13 1017.3 988.7
23 13.06 ЮВ 1-1
{2}
35 км ясно +12.5 +12.1 97 +12 +12 1017.5 988.8
00 14.06 В 1 30 км ясно +11.2 +10.4 95 +11 +11 1017.6 988.8
01 14.06 В 1-1
{2}
26 км ясно +10.9 +10.4 97 +10 +10 1017.7 988.9
02 14.06 В 1-1
{1}
30 км ясно +9.5 +8.7 95 +9 +9 1018.0 989.0
03 14.06 В 1-1
{2}
23 км ясно +9.6 +9.2 97 +9 +9 1018.1 989.1
04 14.06 ЮВ 1-1
{1}
1100 м дымка ясно +9.2 +8.1 93 +8 +9 1018.2 989.2
05 14.06 штиль 0-1
{1}
22 км в посл. час туман {дымка} ясно +13.5 +10.4 82 +13 +15 1017.7 989.1
06 14.06 штиль 0 40 км {туман, дымка} ясно +16.4 +11.2 71 +16 +22 1017.3 989.0 +9.1 +24.6
07 14.06 штиль 0-1
{2}
60 км ясно +20.6 +12.9 61 +23 +32 комфорт 1016.9 989.0
08 14.06 ЮВ 3-5
{5}
>70 км 8/0
[]
+24.9 +10.6 41 +26 +31 жарко 1016.3 988.8
09 14.06 ЮВ 4 60 км 9/0
[]
+25.9 +11.1 40 +27 +32 жарко 1015.9 988.5
10 14.06 ЮВ 4-7
{10}
50 км ясно +26.8 +13.7 44 +29 +40 жарко 1015.8 988.5
11 14.06 Ю 5 35 км 10/0
[]
+27.9 +14.9 45 +30 +35 жарко 1015.1 988.0
12 14.06 Ю 5 45 км 10/0
[]
+29.3 +13.1 37 +31 +35 жарко 1014.9 987.9
13 14.06 Ю 2-3
{8}
65 км 9/0
[]
+29.7 +14.2 39 +32 +40 душно 1014.5 987.5
14 14.06 В 1 40 км 9/0
[]
+30.4 +10.9 30 +31 +39 жарко 1013.7 986.8
15 14.06 ЮЗ 2 60 км 9/0
[]
+29.8 +10.1 29 +30 +35 жарко 1013.6 986.6
16 14.06 СЗ 4 55 км 10/0
[]
+27.7 +16.5 50 +31 +33 душно 1013.3 986.2
17 14.06 СЗ 3-5
{6}
55 км 10/0
[]
+26.6 +16.0 52 +30 +31 душно 1012.4 985.2
18 14.06 С 4 45 км 10/0
[]
+25.7 +15.8 54 +29 +29 душно 1012.8 985.6 +16.4 +31.4
19 14.06 С 5 55 км 10/0
[]
+24.2 +15.0 56 +27 +27 жарко 1012.3 984.9
20 14.06 С 3 55 км 10/0
[]
+22.4 +13.5 57 +25 +25 комфорт 1012.2 984.6
21 14.06 С 3 55 км 10/0
[]
+22.3 +13.5 57 +25 +25 комфорт 1010.7 983.2
22 14.06 СЗ 2-4
{5}
50 км 4/0
[]
+21.0 +13.7 63 +24 +24 комфорт 1010.1 982.5
23 14.06 СЗ 2 45 км 8/0
[]
+20.8 +13.8 64 +24 +24 комфорт 1009.5 981.9
00 15.06 ЮЗ 1 40 км 4/0
[]
+17.6 +13.9 79 +19 +19 1009.3 981.4
01 15.06 ЮВ 1 35 км 9/0
[]
+17.0 +14.8 87 +18 +18 1009.2 981.2
02 15.06 В 1 29 км 9/0
[]
+16.3 +14.8 91 +17 +17 1008.3 980.3
03 15.06 В 1 21 км 9/0
[]
+15.6 +14.5 93 +16 +16 1008.3 980.2
04 15.06 ЮВ 1 19 км 6/0
[]
+14.7 +13.4 92 +15 +15 1008.6 980.4
05 15.06 СЗ 1 30 км 10/0
[]
+17.4 +15.9 91 +18 +19 1009.0 981.1
06 15.06 Ю 1 45 км 6/0
[]
+21.2 +15.8 71 +24 +28 комфорт 1010.0 982.4 +14.5 +25.8
07 15.06 З 3-7
{7}
50 км ясно +23.1 +13.4 54 +26 +32 жарко 1010.9 983.4
08 15.06 З 6-10
{10}
40 км 10/0
[]
+21.8 +13.1 58 +24 +27 комфорт 1012.2 984.6
09 15.06 З 5 45 км 5/0
[]
+22.6 +13.8 58 +26 +31 жарко 1013.1 985.5
10 15.06 З 6-10
{10}
45 км ясно +23.6 +13.6 53 +26 +32 жарко 1013.4 985.9
11 15.06 З 5 55 км 6/6 1200 м
[]
+23.0 +13.1 54 +26 +30 жарко 1014.0 986.4
12 15.06 З 4 45 км в посл. час осадки 8/8 1350 м
[]
+22.7 +14.6 60 +26 +29 жарко 1014.3 986.7 0.0
13 15.06 З 5 45 км 4/4 1170 м
[]
+23.6 +13.9 54 +26 +31 жарко 1014.5 987.0
14 15.06 З 4 >70 км 8/8 1350 м
[]
+23.1 +12.9 53 +26 +28 жарко 1014.8 987.2
15 15.06 З 3 55 км 5/5 1320 м
[]
+23.7 +13.1 51 +26 +29 жарко 1014.4 986.9
16 15.06 З 4-6
{6}
65 км 1/0
[]
+24.2 +13.4 51 +26 +30 жарко 1014.0 986.6
17 15.06 З 4 >70 км 6/6 1440 м
[]
+23.8 +12.7 50 +26 +26 жарко 1013.8 986.3
18 15.06 СЗ 3 >70 км 4/4 1000 м
[]
+23.4 +12.7 51 +26 +27 жарко 1013.9 986.4 +21.1 +24.8
19 15.06 З 2 65 км 10/0
[]
+21.7 +13.3 59 +24 +24 комфорт 1014.4 986.7
20 15.06 З 1 28 км 8/0
[]
+18.8 +13.6 72 +21 +21 комфорт 1015.2 987.2
21 15.06 В 1 30 км 9/0
[]
+16.0 +13.3 84 +17 +17 1015.6 987.4
22 15.06 В 1 30 км 10/0
[]
+15.7 +14.0 90 +16 +16 1016.0 987.7
23 15.06 Ю 1 50 км 10/0
[]
+16.3 +14.2 87 +17 +17 1016.4 988.2
00 16.06 штиль 0 45 км 10/0
[]
+16.6 +15.1 91 +16 +16 1017.3 989.1
01 16.06 ЮВ 1 40 км 9/9 1500 м
[]
+16.4 +14.1 86 +17 +17 1017.8 989.5
02 16.06 ЮЗ 1 12 км слаб. дождь {морось} 9/9 120 м
[]
+16.4 +15.2 93 +17 +17 1018.3 990.0
03 16.06 СЗ 1 3300 м дождь {морось} 10/10 120 м
[]
+16.2 +15.3 94 +17 +17 1018.0 989.7 5
04 16.06 ЮЗ 1 25 км в посл. час дождь {морось} 10/0
[]
+15.9 +15.2 96 +17 +17 1018.2 989.9
05 16.06 СВ 1-1
{2}
8000 м 10/0
[]
+15.9 +15.2 96 +17 +17 1018.7 990.4
06 16.06 СЗ 1 6000 м слаб. морось с дождем 9/9 300 м
[]
+16.0 +14.9 93 +17 +17 1019.7 991.4 +15.1 +23.3 5
07 16.06 штиль 0 25 км слаб. дождь {морось} 9/9 150 м
[]
+16.4 +15.2 93 +16 +17 1020.2 991.9
08 16.06 З 2 25 км в посл. час дождь {морось} 9/9 270 м
[]
+16.4 +14.9 91 +16 +18 1020.7 992.4
09 16.06 СЗ 2 30 км слаб. морось {дождь} 9/9 1050 м
[]
+17.0 +14.2 84 +17 +19 1021.0 992.7 0.9
10 16.06 СЗ 3 50 км в посл. час дождь {морось} 9/9 500 м
[]
+17.6 +14.2 80 +18 +19 1021.3 993.1
11 16.06 З 2 45 км в посл. час дождь {морось} 9/9 800 м
[]
+17.5 +13.9 79 +18 +20 1021.6 993.3
12 16.06 З 3 30 км слаб. дождь {морось} 9/9 960 м
[]
+18.3 +12.8 70 +19 +20 1021.6 993.4 0.0
13 16.06 З 2-3
{4}
45 км в посл. час дождь {морось} 10/0 2000 м
[]
+19.0 +13.0 68 +21 +28 комфорт 1021.5 993.4
14 16.06 ЮЗ 1 60 км 9/9 1300 м
[]
+19.9 +12.3 62 +23 +24 комфорт 1021.3 993.3
15 16.06 ЮВ 2 40 км слаб. дождь {морось} 9/9 750 м
[]
+17.6 +14.4 82 +18 +19 1021.6 993.4 0.0
16 16.06 С 2 11 км слаб. дождь 9/9 120 м
[]
+16.5 +15.3 93 +17 +17 1021.8 993.5
17 16.06 СВ 1 35 км в посл. час дождь {морось} 10/10 1500 м
[]
+17.0 +14.9 87 +18 +18 1022.0 993.7
18 16.06 В 1 35 км слаб. морось {дождь} 10/0
[]
+17.2 +14.4 84 +18 +19 1021.9 993.6 +15.8 +21.0 4
19 16.06 З 1 29 км в посл. час морось 9/0
[]
+16.8 +15.1 90 +18 +18 1021.6 993.3
20 16.06 штиль 0-1
{1}
10 км 10/0
[]
+16.1 +15.1 94 +16 +16 1022.2 993.8
21 16.06 Ю 2 10 км {морось, дымка} 10/0
[]
+15.5 +14.9 96 +15 +15 1022.6 994.1 0.0
22 16.06 ЮВ 1-1
{2}
5000 м дымка 10/0
[]
+15.2 +14.8 97 +16 +16 1022.4 993.9
23 16.06 СЗ 1 100 м туман {дымка} 8/8 <50 м
[]
+14.5 +14.5 100 +15 +15 1022.5 993.9
00 17.06 ЮВ 1 100 м туман 10/10 <50 м
[]
+14.7 +14.5 99 +15 +15 1023.0 994.4
01 17.06 В 1-1
{1}
200 м туман {дымка} 10/10 <50 м
[]
+14.4 +14.0 97 +15 +15 1022.6 994.0
02 17.06 СЗ 1-2
{2}
200 м туман {дымка} 10/10 <50 м
[]
+14.0 +13.8 99 +14 +14 1022.2 993.6
03 17.06 В 1 100 м туман {дымка} 10/10 <50 м
[]
+13.4 +13.2 99 +13 +13 1022.6 993.9 0.1
04 17.06 СВ 2-2
{3}
100 м туман 10/10 <50 м
[]
+13.4 +13.2 99 +13 +13 1022.6 993.9
05 17.06 СВ 2-2
{3}
200 м туман {дымка} 10/10 <50 м
[]
+13.3 +13.1 99 +12 +12 1022.7 994.0
06 17.06 С 2 8000 м в посл. час туман {дымка} 10/10 50 м
[]
+14.5 +14.1 97 +14 +14 1022.4 993.8 +13.0 +17.2 0.1
07 17.06 СЗ 2-2
{3}
18 км 4/4 210 м
[]
+16.0 +13.9 87 +16 +20 1022.2 993.8
08 17.06 СЗ 2-3
{3}
29 км ясно +18.6 +14.4 77 +20 +30 1021.4 993.3
09 17.06 З 2 35 км 6/6 870 м
[]
+20.3 +14.4 69 +23 +29 комфорт 1021.0 993.0
10 17.06 З 1 60 км 4/4 870 м
[]
+22.7 +12.9 54 +26 +37 жарко 1020.3 992.5
11 17.06 В 2 45 км 4/4 1350 м
[]
+23.5 +11.8 48 +25 +36 комфорт 1019.7 992.0
12 17.06 Ю 3 55 км 1/0 2000 м
[]
+24.5 +13.7 51 +27 +41 жарко 1019.0 991.5
13 17.06 ЮВ 4-7
{7}
55 км 3/3 1500 м
[]
+24.7 +11.7 44 +26 +33 жарко 1018.8 991.3
14 17.06 В 5 60 км 5/5 1500 м
[]
+25.4 +11.9 43 +27 +30 жарко 1018.2 990.7
15 17.06 СВ 3 >70 км 1/1 1500 м
[]
+25.6 +12.3 44 +27 +34 жарко 1017.5 990.1
16 17.06 В 3 60 км 5/0 2000 м
[]
+25.9 +12.8 44 +28 +31 жарко 1017.0 989.6
17 17.06 В 3-4
{5}
45 км 3/0
[]
+24.9 +11.8 44 +26 +28 жарко 1016.8 989.3
18 17.06 СВ 2 60 км ясно +24.6 +13.3 49 +27 +27 жарко 1016.6 989.1 +14.5 +27.1
19 17.06 В 2-2
{4}
50 км ясно +22.0 +15.4 66 +26 +26 душно 1016.7 989.0
20 17.06 ЮВ 1-1
{2}
22 км ясно +17.5 +14.6 83 +19 +19 1017.4 989.3
21 17.06 штиль 0-1
{4}
16 км ясно +15.5 +14.0 91 +15 +15 1017.7 989.4
22 17.06 СВ 1-1
{1}
20 км ясно +14.2 +13.0 92 +14 +14 1018.1 989.6
23 17.06 СВ 1-2
{2}
18 км ясно +14.6 +13.8 95 +15 +15 1018.1 989.7
00 18.06 З 1 25 км ясно +13.8 +12.9 94 +14 +14 1018.0 989.5
01 18.06 Ю 1-1
{1}
12 км ясно +13.3 +12.8 97 +13 +13 1017.9 989.3
02 18.06 штиль 0 13 км 6/0 2000 м
[]
+13.4 +13.0 97 +13 +13 1017.5 988.9
03 18.06 штиль 0 8000 м 9/0 2000 м
[]
+13.5 +13.2 98 +13 +13 1017.4 988.9
04 18.06 В 1-1
{1}
12 км ясно +14.1 +13.3 95 +14 +15 1017.3 988.8
05 18.06 СЗ 1-2
{2}
35 км ясно +16.7 +12.4 76 +18 +19 1017.0 988.8
06 18.06 СЗ 1 30 км 9/0
[]
+18.7 +12.4 67 +21 +23 комфорт 1016.9 988.9 +12.8 +24.5
07 18.06 ЮЗ 1-2
{2}
60 км 5/0
[]
+21.5 +13.4 60 +24 +30 комфорт 1016.5 988.7
08 18.06 З 1-2
{2}
40 км ясно +23.1 +12.9 53 +26 +39 жарко 1016.2 988.6
09 18.06 Ю 2 50 км ясно +24.1 +14.2 54 +27 +41 жарко 1015.8 988.3
10 18.06 В 3 50 км 9/9 1500 м
[]
+25.5 +14.6 51 +28 +29 жарко 1015.2 987.9
11 18.06 Ю 4 40 км 4/4 1500 м
[]
+26.9 +11.3 38 +28 +35 жарко 1014.7 987.5
12 18.06 Ю 4 55 км 9/0 2000 м
[]
+28.1 +11.6 36 +29 +36 жарко 1013.8 986.7
13 18.06 ЮВ 2-5
{6}
45 км 3/0 2000 м
[]
+27.7 +9.7 32 +28 +41 жарко 1013.4 986.3
14 18.06 Ю 2-4
{5}
40 км ясно +28.6 +9.7 31 +29 +41 жарко 1013.1 986.0
15 18.06 ЮЗ 1 45 км 3/0
[]
+29.0 +9.9 30 +29 +38 жарко 1012.5 985.5
16 18.06 ЮЗ 1 35 км 10/0
[]
+29.2 +9.8 30 +29 +32 жарко 1012.0 985.0
17 18.06 Ю 1 50 км 9/0
[]
+30.1 +7.7 25 +29 +31 жарко 1011.8 984.9
18 18.06 ЮЗ 1 50 км 6/0
[]
+26.2 +14.4 48 +29 +29 жарко 1012.0 984.8 +18.7 +30.4
19 18.06 ЮЗ 1 45 км 10/0
[]
+21.5 +16.4 73 +25 +25 комфорт 1012.2 984.6
20 18.06 ЮЗ 1 35 км 10/0
[]
+18.6 +16.0 85 +21 +21 комфорт 1012.6 984.7
21 18.06 ЮВ 1 40 км 10/0
[]
+17.7 +15.3 86 +19 +19 1012.6 984.6
22 18.06 ЮВ 1 28 км 8/0
[]
+16.3 +14.6 90 +17 +17 1012.9 984.8
23 18.06 В 1 23 км 10/0
[]
+15.4 +14.1 92 +16 +16 1013.0 984.8
00 19.06 В 1 23 км 9/0
[]
+15.0 +13.8 93 +15 +15 1012.9 984.6
01 19.06 Ю 1-1
{1}
18 км 10/0
[]
+14.7 +13.7 94 +15 +15 1012.4 984.1
02 19.06 штиль 0-1
{2}
15 км 10/0
[]
+15.0 +14.1 94 +15 +15 1012.1 983.9
03 19.06 ЮВ 1 17 км 10/0
[]
+14.9 +13.9 94 +15 +15 1012.0 983.8

 

Местоположение метеостанции Бамберг (Германия): широта 49.88 долгота 10.92 высота над уровнем моря 242 м.

В архиве по умолчанию представлена погода в Бамберге за последнюю неделю. Архивные данные за месяц целиком и за предыдущие месяцы, начиная с января 2011 года, Вы можете получить, выбрав интересующий диапазон дат из раскрывающегося списка и нажав кнопку "Ввод!".


*Определитесь, кто Вы:
робот инопланетянин человек

Внимание! Время в таблицах - всемирное. Для получения местного времени необходимо прибавить поправку, которая равна 1 ч.

Смотрите также архив погоды в соседних городах и на ближайших метеорологических станциях:

Погода в Нюрнберге (Германия) (44 км)
Погода в Кобурге (Германия) (45 км)
Погода в Вюрцбурге (Германия) (69 км)
Погода в Бад-Киссингене (Германия) (70 км)
Погода в Нойхаусе (Германия) (71 км)
Погода в Роте (Германия) (75 км)
Погода в Шёнбрунне (Германия) (77 км)
Погода в Хофе (Германия) (84 км)
Погода в Майнингене (Германия) (86 км)
Погода в Шмюкке (Германия) (86 км)

Пояснения к столбцам:

Ветер - указаны скорость ветра в м/с - средняя за 10 мин, порывы в срок и между сроками (в фигурных скобках) и направление, откуда дует ветер: С - северный, СВ - северо-восточный, В - восточный, ЮВ - юго-восточный, Ю - южный, ЮЗ - юго-западный, З - западный, СЗ - северо-западный.
Видимость - горизонтальная дальность видимости в метрах или километрах. При видимости от 1 до 10 км при отсутствии осадков обычно наблюдается дымка, при ухудшении видимости до 1 км и менее - туман. В сухую погоду видимость может ухудшаться дымом, пылью или мглою.
Явления - указаны атмосферные явления, наблюдавшиеся в срок или в последний час перед сроком; фигурными скобками обозначены явления, наблюдавшиеся между сроками (за 1-3 часа до срока); квадратными скобками обозначены град или гололедные отложения с указанием их диаметра в мм.
Облачность - указаны через наклонную черту общая и нижняя облачность в баллах и высота нижней границы облаков в метрах; квадратными скобками обозначены формы облаков: Ci - перистые, Cs - перисто-слоистые, Cc - перисто-кучевые, Ac - высококучевые, As - высокослоистые, Sc - слоисто-кучевые, Ns - слоисто-дождевые, Cu - кучевые, Cb - кучево-дождевые. Подробнее классификацию облаков см. в Атласе облаков (PDF).
T - Температура воздуха - температура, измеренная на высоте 2 м над землей.
Td - Температура точки росы - температура, при понижении до которой содержащийся в воздухе водяной пар достигнет насыщения.
f - Относительная влажность воздуха - влажноcть воздуха, измеренная на высоте 2 м над землей.
Te - Эффективная температура - температура, которую ощущает одетый по сезону человек в тени. Характеристика душности погоды. При расчете учитывается влияние влажности воздуха и скорости ветра на теплоощущения человека.
Tes - Эффективная температура на солнце - температура, которую ощущает человек, с поправкой на солнечный нагрев. Характеристика знойности погоды. Зависит от высоты солнца над горизонтом, облачности и скорости ветра. Ночью, в пасмурную погоду, а также при ветре 12 м/с и более поправка равна нулю.
P - Атмосферное давление - приведенное к уровню моря атмосферное давление.
Po - Атмосферное давление - измеренное на уровне метеостанции атмосферное давление.
Tmin - Минимальная температура - минимум температуры воздуха на высоте 2 м над землей.
Tmax - Максимальная температура - максимум температуры воздуха на высоте 2 м над землей.
R - Количество осадков - Количество выпавших осадков за период времени, мм. При наведении курсора мыши на число - период времени, за который выпало указанное количество осадков.
R24 - Количество осадков - Количество выпавших осадков за 24 часа, мм.
S - Снежный покров - Высота снежного покрова, см. При наведении курсора мыши на число - состояние снежного покрова и степень покрытия местности в баллах.